This is the latest recevied weather packets stored in our database for station/object KE2HEH. If no packets are shown the sender has not sent any weather packets the latest 10 day(s).
| Time | Temp. | Humidity | Pressure | Rain* | Wind** | Luminosity | Snow |
|---|---|---|---|---|---|---|---|
| 1778169358 | 15.56° C | 54% | 1011.2 hPa | 0 mm | - | 759 W/m² | - |
| 1778169055 | 16.11° C | 54% | 1011.3 hPa | 0 mm | - | 734 W/m² | - |
| 1778168752 | 15.56° C | 56% | 1011.4 hPa | 0 mm | - | 173 W/m² | - |
| 1778168449 | 15° C | 57% | 1011.3 hPa | 0 mm | - | 739 W/m² | - |
| 1778168146 | 15° C | 58% | 1011.3 hPa | 0 mm | - | 789 W/m² | - |
| 1778167842 | 14.44° C | 62% | 1011.2 hPa | 0 mm | - | 749 W/m² | - |
| 1778167538 | 13.89° C | 65% | 1011.3 hPa | 0 mm | - | 773 W/m² | - |
| 1778167235 | 14.44° C | 64% | 1011.4 hPa | 0 mm | - | 369 W/m² | - |
| 1778166931 | 14.44° C | 64% | 1011.6 hPa | 0 mm | - | 514 W/m² | - |
| 1778166628 | 14.44° C | 63% | 1011.5 hPa | 0 mm | - | 814 W/m² | - |
| 1778166325 | 13.89° C | 64% | 1011.5 hPa | 0 mm | - | 818 W/m² | - |
| 1778166022 | 13.89° C | 64% | 1011.8 hPa | 0 mm | - | 545 W/m² | - |
| 1778165716 | 13.89° C | 65% | 1011.8 hPa | 0 mm | - | 756 W/m² | - |
| 1778165415 | 13.33° C | 68% | 1011.8 hPa | 0 mm | - | 806 W/m² | - |
| 1778165111 | 13.33° C | 71% | 1011.8 hPa | 0 mm | - | 285 W/m² | - |
| 1778164809 | 12.78° C | 74% | 1012 hPa | 0 mm | - | 363 W/m² | - |
| 1778164505 | 12.78° C | 76% | 1011.8 hPa | 0 mm | - | 209 W/m² | - |
| 1778164203 | 12.78° C | 77% | 1011.8 hPa | 0 mm | - | 440 W/m² | - |
| 1778163898 | 12.78° C | 77% | 1011.6 hPa | 0 mm | - | 342 W/m² | - |
| 1778163595 | 12.78° C | 78% | 1011.7 hPa | 0 mm | - | 257 W/m² | - |
| 1778163291 | 12.78° C | 79% | 1011.4 hPa | 0 mm | - | 289 W/m² | - |
| 1778162988 | 12.78° C | 78% | 1011.6 hPa | 0 mm | - | 301 W/m² | - |
| 1778162684 | 12.78° C | 79% | 1011.7 hPa | 0 mm | - | 689 W/m² | - |
| 1778162382 | 12.78° C | 78% | 1011.5 hPa | 0 mm | - | 310 W/m² | - |
| 1778162079 | 12.78° C | 77% | 1011.5 hPa | 0 mm | - | 367 W/m² | - |
* Rain latest hour (hover to see other rain measurements)
** Current wind speed in m/s (hover to see current wind gust speed)